Tracking 29065 objects as of 22-Jul-2024
HD Live streaming from Space Station
objects crossing your sky now

COSMOS 1275 DEB

Track COSMOS 1275 DEB now!
10-day predictions


NORAD ID: 13796
Int'l Code: 1981-053GT
Perigee: 885.4 km
Apogee: 1,049.9 km
Inclination: 83.0 °
Period: 104.3 minutes
Semi major axis: 7338 km
RCS: 0.0167 m2 (small)
Launch date: June 4, 1981
Source: Commonwealth of Independent States (former USSR) (CIS)
Launch site: PLESETSK MISSILE AND SPACE COMPLEX (PKMTR)

Note: This is SATELLITE DEBRIS
Your satellite tracking list
Your tracking list is empty




NASA's NSSDC Master Catalog

Two Line Element Set (TLE):
1 13796U 81053GQ  24204.34999000  .00002040  00000-0  18323-2 0  9994
2 13796  83.0240 297.9600 0112039 290.8005 136.8870 13.80951702 86797
Source of the keplerian elements: AFSPC